Location: Kershaw
(34.5481°N, 80.5823°W)
Time: 21:28:04
(UTC+00:00)

Vanguard 2 Rocket - Pass Details

Date: 03 October 2022
Orbit: 555 x 3321 km, 32.9° (Epoch: 28 November)

Event Time Altitude Azimuth Distance (km) Brightness Sun altitude
Rises 01:27:15 0° 215° (SW) 7,289 11.7 -29.8°
Reaches altitude 10° 01:33:03 10° 208° (SSW) 6,161 11.2 -31.0°
Enters shadow 01:47:34 35° 159° (SSE) 3,758 9.6 -33.8°
